Location: Most
(50.5330°N, 13.6500°E)
Time: 05:52:09
(UTC+02:00)

ISS - Pass Details

Date: 20 May 2021
Orbit: 417 x 422 km, 51.6° (Epoch: 13 June)

Event Time Altitude Azimuth Distance (km) Brightness Sun altitude
Rises 22:54:57 0° 272° (W) 2,365 0.5 -14.0°
Reaches altitude 10° 22:57:04 10° 275° (W) 1,502 -0.5 -14.1°
Maximum altitude 23:00:25 70° 359° (N) 450 -3.5 -14.4°
Drops below altitude 10° 23:03:48 10° 85° (E) 1,505 -1.2 -14.7°
Enters shadow 23:04:12 - 85° (E) 1,665 -1.0 -14.7°
